Snowfall_Accumulation
0.0 0.0 0.0 0.0 0.0 0.0 0.0 0.0 0.0 0.0 0.0 0.0 0.0 0.0 0.0 0.0 0.0 0.0 0.0 0.0 0.0 0.0
0.0 0.0 0.0 0.0 0.0 0.0 0.0 0.0 0.0 0.0 0.0 0.0 0.0 0.0 0.0 0.0 0.0 0.0 0.0 0.0 0.0 0.0
0.0 0.0 0.0 0.0 0.0 0.0 0.0 0.0 0.0 0.0 0.0 0.0 0.0 0.0 0.0 0.0 0.0 0.0 0.0 0.0 0.0 0.0
0.1 0.0 0.0 0.0 0.0 0.0 0.0 0.0 0.0 0.0 0.0 0.0 0.0 0.0 0.0 0.0 0.0 0.0 0.0 0.0 0.0 0.0
0.5 0.7 0.7 0.6 0.2 0.0 0.0 0.1 0.1 0.0 0.0 0.0 0.0 0.0 0.0 0.0 0.0 0.0 0.0 0.0 0.0 0.0
1.0 1.1 1.1 1.3 1.8 0.0 0.5 0.0 0.7 0.3 0.2 0.2 0.3 0.1 0.0 0.0 0.0 0.0 0.0 0.0 0.0 0.0
1.9 2.1 1.7 1.2 1.1 0.9 2.3 2.8 3.6 3.3 1.9 1.7 0.8 0.6 0.1 0.1 0.1 0.1 0.0 0.0 0.0 0.0
0.8 2.6 2.3 2.4 2.6 3.5 3.2 3.1 2.9 2.7 2.3 3.7 3.2 2.7 2.1 1.2 1.1 1.3 0.4 0.3 0.0 0.0
0.0 0.9 1.4 1.5 1.8 1.6 1.6 2.3 3.6 4.2 3.2 5.7 5.3 4.1 3.3 2.7 2.7 2.1 1.8 1.7 1.2 0.7
0.0 0.0 0.0 0.1 0.2 0.0 0.4 0.8 2.2 4.4 5.9 2.6 5.8 4.3 4.4 5.2 4.4 3.6 3.1 2.8 1.9 1.6
0.0 0.0 0.0 0.0 0.0 0.0 0.0 0.0 0.0 0.0 0.0 0.0 1.7 2.3 6.8 4.8 9.8 6.5 5.2 3.8 3.8 3.0
0.1 0.0 0.0 0.0 0.0 0.0 0.0 0.0 0.0 0.0 0.0 0.0 0.4 0.1 0.0 0.8 2.7 1.9 3.1 5.5 4.7 3.9
0.1 0.0 0.0 0.0 0.0 0.0 0.0 0.0 0.0 0.0 0.0 0.0 0.1 0.2 0.1 0.1 0.1 0.1 1.0 1.5 1.8 3.2
0.0 0.2 0.0 0.0 0.0 0.0 0.0 0.0 0.0 0.0 0.0 0.0 0.1 0.0 0.0 0.0 0.0 0.3 0.3 0.3 0.7 0.8